Mt. Pocono, PA

8:22 AM EDT on April 23, 2018 (GMT -0400)
Pocono Mountains Municipal

Weather History for KMPO - February, 2012

Change the Weather History Date:

Friday, February 10, 2012

  Actual Average Record
Temperature  
Mean Temperature 29 °F 25 °F  
Max Temperature 35 °F 33 °F 50 °F (1990)
Min Temperature 22 °F 17 °F -23 °F (1934)
Degree Days  
Heating Degree Days 36 40  
Month to date heating degree days 325 406  
Since 1 July heating degree days 3649 4437  
Cooling Degree Days 0 0  
Month to date cooling degree days 0 0  
Year to date cooling degree days 0 0  
Moisture  
Dew Point 18 °F    
Average Humidity 62    
Maximum Humidity 74    
Minimum Humidity 49    
Precipitation  
Precipitation T in 0.09 in 2.74 in (1998)
Month to date precipitation 0.02 0.75  
Year to date precipitation 3.24 3.60  
Sea Level Pressure  
Sea Level Pressure 30.04 in    
Wind  
Wind Speed 9 mph (West)    
Max Wind Speed 16 mph    
Max Gust Speed 21 mph    
Visibility 10 miles    
Events Snow    
T = Trace of Precipitation, MM = Missing Value Source: NWS Daily Summary

Daily Weather History Graph

Daily Weather History Graph

Search for Another Location

Airport or City:

Astronomy

Feb. 10, 2012 Rise Set
Actual Time 7:03 AM EST 5:28 PM EST
Civil Twilight 6:34 AM EST 5:57 PM EST
Nautical Twilight 6:02 AM EST 6:30 PM EST
Astronomical Twilight 5:29 AM EST 7:02 PM EST
Moon 9:07 PM EST (2/10) 8:08 AM EST (2/10)
Length of Visible Light 11h 23m
Length of Day
10h 25m
Waning Gibbous, 90% of the Moon is Illuminated
Feb 10
Waning Gibbous
Feb 14
Last Quarter
Feb 21
New
Feb 29
First Quarter
Mar 8
Full

Hourly Weather History & Observations

Time (EST) Temp. Windchill Dew Point Humidity Pressure Visibility Wind Dir Wind Speed Gust Speed Precip Events Conditions
12:53 AM 26.1 °F 17.6 °F 17.1 °F 69% 30.12 in 10.0 mi West 8.1 mph - N/A   Clear
1:53 AM 26.1 °F 15.6 °F 18.0 °F 71% 30.11 in 10.0 mi WNW 11.5 mph - N/A   Scattered Clouds
2:53 AM 27.0 °F 18.0 °F 18.0 °F 69% 30.11 in 10.0 mi WNW 9.2 mph - N/A   Mostly Cloudy
3:53 AM 27.0 °F 18.0 °F 17.1 °F 66% 30.09 in 10.0 mi WNW 9.2 mph - N/A   Mostly Cloudy
4:53 AM 25.0 °F 15.5 °F 17.1 °F 72% 30.09 in 10.0 mi West 9.2 mph - N/A   Clear
5:53 AM 24.1 °F 15.2 °F 16.0 °F 71% 30.10 in 10.0 mi WNW 8.1 mph - N/A   Clear
6:53 AM 23.0 °F 13.9 °F 16.0 °F 74% 30.10 in 10.0 mi WNW 8.1 mph - N/A   Clear
7:53 AM 24.1 °F 13.7 °F 17.1 °F 75% 30.06 in 10.0 mi WNW 10.4 mph - N/A   Clear
8:53 AM 26.1 °F 15.0 °F 17.1 °F 69% 30.15 in 10.0 mi West 12.7 mph 19.6 mph N/A   Clear
9:53 AM 28.0 °F 18.1 °F 17.1 °F 63% 30.12 in 10.0 mi West 11.5 mph - N/A   Clear
10:53 AM 30.9 °F 21.7 °F 17.1 °F 57% 30.07 in 10.0 mi West 11.5 mph - N/A   Clear
11:53 AM 33.1 °F 26.1 °F 18.0 °F 54% 30.04 in 10.0 mi West 8.1 mph - N/A   Clear
12:53 PM 34.0 °F 26.0 °F 18.0 °F 52% 30.08 in 10.0 mi SW 10.4 mph - N/A   Clear
1:53 PM 34.0 °F 26.6 °F 18.0 °F 52% 30.08 in 10.0 mi SW 9.2 mph - N/A   Clear
2:53 PM 34.0 °F 27.2 °F 18.0 °F 52% 29.88 in 10.0 mi WSW 8.1 mph - N/A   Clear
3:53 PM 34.0 °F 27.2 °F 18.0 °F 52% 29.91 in 10.0 mi SW 8.1 mph - N/A   Mostly Cloudy
4:53 PM 32.0 °F 23.6 °F 16.0 °F 52% 29.94 in 10.0 mi WSW 10.4 mph - N/A   Overcast
5:53 PM 30.9 °F 23.5 °F 18.0 °F 59% 29.99 in 10.0 mi West 8.1 mph - N/A   Overcast
6:53 PM 30.9 °F 26.2 °F 18.0 °F 59% 30.06 in 10.0 mi WSW 4.6 mph - N/A   Overcast
7:53 PM 30.9 °F 24.3 °F 18.0 °F 59% 30.04 in 10.0 mi West 6.9 mph - N/A   Overcast
8:53 PM 30.0 °F 25.2 °F 18.0 °F 61% 29.99 in 10.0 mi West 4.6 mph - N/A   Overcast
9:53 PM 30.0 °F 25.2 °F 19.0 °F 64% 29.93 in 10.0 mi WSW 4.6 mph - N/A   Overcast
10:53 PM 30.0 °F 23.2 °F 19.9 °F 66% 29.88 in 10.0 mi WSW 6.9 mph - N/A   Overcast
11:53 PM 28.9 °F 21.9 °F 21.9 °F 75% 29.86 in 6.0 mi WNW 6.9 mph - 0.00 in Snow Light Snow